Regional Weather Roundup
Issued by NWS Green Bay, WI

Home | Current Version | Previous Version | Graphics & Text | Print | Product List | Glossary Off
Versions: 1 2 3 4 5 6 7 8 9 10 11 12 13 14 15 16 17 18 19 20 21 22 23 24 25 26 27 28 29 30 31 32 33 34 35 36 37 38 39 40 41 42 43 44 45 46 47 48 49 50

000
ASUS43 KGRB 300759
RWRGRB

NORTH-CENTRAL AND NORTHEAST WISCONSIN REGIONAL WEATHER ROUNDUP
NATIONAL WEATHER SERVICE GREEN BAY WI
300 AM CDT MON MAR 30 2015

WIZ005-009-010>012-018-019-300900-
NORTH CENTRAL WISCONSIN

CITY           SKY/WX    TMP DP  RH WIND       PRES   REMARKS
IRONWOOD       CLEAR     36  27  69 W15       29.77S
MANITOWISH WTR NOT AVBL
ARBOR VITAE    NOT AVBL
EAGLE RIVER    NOT AVBL
LAND O LAKES   NOT AVBL
RHINELANDER    PTCLDY    31  25  78 W12       29.81S
PHILLIPS       NOT AVBL
ANTIGO         NOT AVBL
TOMAHAWK       NOT AVBL
MERRILL        NOT AVBL
$$

WIZ013-073-300900-
NORTHEAST WISCONSIN

CITY           SKY/WX    TMP DP  RH WIND       PRES   REMARKS
IRON MOUNTAIN  PTCLDY    35  27  72 W9        29.73F
MARINETTE      CLEAR     36  27  69 W7        29.79R
$$

WIZ017-030-035>037-045-300900-
CENTRAL WISCONSIN

CITY           SKY/WX    TMP DP  RH WIND       PRES   REMARKS
MEDFORD        NOT AVBL
WAUSAU         CLEAR     34  27  75 NW10      29.84S
MOSINEE        NOT AVBL
MARSHFIELD     CLEAR     34  26  72 W9        29.89S
WISC RAPIDS    CLEAR     32  24  72 W7        29.92S
STEVENS POINT  NOT AVBL
WAUPACA        NOT AVBL
SHAWANO        NOT AVBL
CLINTONVILLE   NOT AVBL
$$

WIZ038-039-048-051-300900-
FOX VALLEY

CITY           SKY/WX    TMP DP  RH WIND       PRES   REMARKS
NWS GREEN BAY  CLEAR     37  30  75 W13       29.85R
APPLETON       NOT AVBL
OSHKOSH        CLEAR     36  29  75 W6        29.89R
FOND DU LAC    CLEAR     38  29  70 W9        29.90R
$$

WIZ022-050-052-300900-
EAST CENTRAL WISCONSIN

CITY           SKY/WX    TMP DP  RH WIND       PRES   REMARKS
STURGEON BAY   CLEAR     36  28  75 W10       29.82S
MANITOWOC      NOT AVBL
SHEBOYGAN      CLEAR     37  29  72 W9        29.88R
$$

LMZ563-521-522-541>543-300900-
LAKESHORE

STATION/POSITION TIME  TEMP    WIND        PRES    VSBY  WAVE
                       AIR SEA DIR/SP/G                  HT/PER
                 (UTC) (F)     (DEG/KT/KT) (MB)    (MI)  (FT/S)
SHEBOYGAN LKSHOR 0700   40     280/ 13/ 17 1012.2R
KEWAUNEE LKSHORE 0700   38     280/ 10/ 14 1009.0R
NORTHPORT PIER   0700   36     260/  7/ 14 1007.8R
SISTER BAY LKSHO 0700   35     250/ 14/ 15   N/A
CHAMBERS ISLAND  0700   35     220/  7/ 12 1008.5R
MENOMINEE LKSHOR 0700   36     240/  7     1009.5R
$$



USA.gov is the U.S. government's official web portal to all federal, state and local government web resources and services.